Location: Asheville, NC
(35.6000°N, 82.5500°W)
Time: 17:12:57
(UTC-04:00)

Vanguard 3 - Pass Details

Date: 11 March 2018
Orbit: 508 x 3264 km, 33.3° (Epoch: 18 June)

Event Time Altitude Azimuth Distance (km) Brightness Sun altitude
Rises 07:46:58 0° 208° (SSW) 6,995 11.7 -0.7°
Reaches altitude 10° 07:52:18 10° 200° (SSW) 6,130 11.5 0.3°
Maximum altitude 08:08:46 34° 144° (SE) 4,326 11.4 3.7°
Drops below altitude 10° 08:22:38 10° 88° (E) 5,223 13.5 6.5°
Sets 08:26:37 0° 80° (E) 5,891 13.1 7.3°
